Tracking 19572 objects as of 23-Feb-2019
HD Live streaming from Space Station
objects crossing your sky now

CLUSTER II-FM6

Track CLUSTER II-FM6 now!
CLUSTER II-FM6 is classified as:


NORAD ID: 26410
Int'l Code: 2000-041A
Perigee: 36,525.5 km
Apogee: 96,281.4 km
Inclination: 131.1 °
Period: 3,256.3 minutes
Semi major axis: 72774 km
RCS: 1.9953 m2 (large)
Launch date: July 16, 2000
Source: European Space Agency (ESA)
Launch site: TYURATAM MISSILE AND SPACE COMPLEX (TTMTR)
aabbcc
Your satellite tracking list
Your tracking list is empty




NASA's NSSDC Master Catalog

Two Line Element Set (TLE):
1 26410U 00041A   19057.12034011 -.00000270  00000-0  00000+0 0  9991
2 26410 131.1339 338.0455 4105554 169.6553 359.5703  0.44221618 20230
Source of the keplerian elements: AFSPC